STARLINK-5713 (55578 NORAD) Tracking and Keplerian Element Data

This shows tracking and keplerian element data for the satellite.

Feedback or suggestion? Click here.




ElementValue
Catalog55578
NameSTARLINK-5713
Epoch Orbit654
Epoch Day85.25001157
Epoch Year2023
RAAN110.1537
Inclination42.9965
Eccentricity0.0001225
Argument of Perigee264.2676
Mean Anonmoly33.3979
Mean Motion15.06837325
Decay Rate-0.01213149
L11 55578U 23020K 23085.25001157 -.01213149 00000+0 -87429-1 0 9999
L22 55578 42.9965 110.1537 0001225 264.2676 33.3979 15.06837325 6547



Live tracking and technical data element details for STARLINK-5713 (NORAD 55578). STARLINK-5713 can be tracked NOW for your location showing map with azimuth and elevation plus other details from your city location.







IsCatalogInMostPopularTable: catalog: 55578, numindb: -1

Insert: records affected: 1


GetName: 55578 STARLINK-5713

Hit Count: inserted at: Tue, 28 Mar 2023 03:10:43 GMT